Regional Weather Roundup
Issued by NWS

Home | Current Version | Previous Version | Text Only | Print | Product List | Glossary Off
Versions: 1 2 3 4 5 6 7 8 9 10 11 12 13 14 15 16 17 18 19 20 21 22 23 24 25 26 27 28 29 30 31 32 33 34 35 36 37 38 39 40 41 42 43 44 45 46 47 48 49 50

000
ASUS45 KBOI 270210
RWRID

IDAHO REGIONAL WEATHER ROUNDUP
NATIONAL WEATHER SERVICE BOISE ID
800 PM MDT THU MAY 26 2016

NOTE: "FAIR" INDICATES FEW OR NO CLOUDS BELOW 12000 FEET
WITH NO SIGNIFICANT WEATHER AND/OR OBSTRUCTIONS TO VISIBILITY

IDZ012-014-270300-
SOUTHWEST IDAHO


CITY           SKY/WX    TMP DP  RH WIND       PRES   REMARKS
BOISE          PTSUNNY   73  34  23 N5        29.89F
CALDWELL       PTSUNNY   74  42  31 NW5       29.89S
MOUNTAIN HOME  MOSUNNY   74  45  35 W8        29.90F
$$

IDZ016-017-270300-
SOUTHCENTRAL IDAHO


CITY           SKY/WX    TMP DP  RH WIND       PRES   REMARKS
BURLEY         PTCLDY    66  36  32 W8        29.92S
JEROME         CLEAR     66  34  30 W16       29.94R
TWIN FALLS     PTCLDY    62  36  37 W10G21    29.95S
$$

IDZ019>023-270300-
SOUTHEAST IDAHO


CITY           SKY/WX    TMP DP  RH WIND       PRES   REMARKS
IDAHO FALLS    CLEAR     61  41  47 SW7       29.93S
POCATELLO      PTCLDY    60  41  49 NW12      29.95R
REXBURG        CLOUDY    62  40  44 VRB3      29.92R
$$

IDZ006-010-011-018-031-032-270300-
CENTRAL IDAHO MOUNTAINS


CITY           SKY/WX    TMP DP  RH WIND       PRES   REMARKS
MCCALL         PTSUNNY   60  33  36 NW7       29.96F
HAILEY         MOSUNNY   54  43  66 NW8       29.99S
STANLEY          N/A     55  31  39 SW6       30.02R
SALMON         PTSUNNY   66  39  37 SW5       29.85S
CHALLIS        CLOUDY    60  37  42 SE10G29   29.93R
$$

IDZ002-004-006-007-026-270300-
NORTHERN IDAHO


CITY           SKY/WX    TMP DP  RH WIND       PRES   REMARKS
LEWISTON       CLOUDY    67  37  33 NW10      29.93F
LOWELL           N/A     63  50  62 VRB3      29.91R
COEUR D`ALENE  CLOUDY    61  45  55 SE7       29.90F
MULLAN PASS    PTSUNNY   43  41  93 VRB5      29.99F
$$



USA.gov is the U.S. government's official web portal to all federal, state and local government web resources and services.